Regional Weather Roundup
Issued by NWS Upton, NY

Current Version | Previous Version | Text Only | Print | Product List | Glossary Off
Versions: 1 2 3 4 5 6 7 8 9 10 11 12 13 14 15 16 17 18 19 20 21 22 23 24 25 26 27
000 ASUS41 KOKX 172108 RWROKX REGIONAL WEATHER ROUNDUP NATIONAL WEATHER SERVICE NEW YORK NY 500 PM EDT THU AUG 17 2017 NOTE: "FAIR" INDICATES FEW OR NO CLOUDS BELOW 12,000 FEET WITH NO SIGNIFICANT WEATHER AND/OR OBSTRUCTIONS TO VISIBILITY. NYZ071-072-176-178-NJZ106-104-172200- NEW YORK CITY METRO AREA CITY SKY/WX TMP DP RH WIND PRES REMARKS Central Park SUNNY 78 61 55 CALM 30.02F Bronx Bot Gard N/A 79 61 53 SE5 30.02R LaGuardia APRT PTSUNNY 79 60 52 S12 29.98F Kennedy INTL PTSUNNY 77 64 64 SE13 30.00F Breezy Point N/A 73 N/A N/A SE9 N/A Newark/Liberty PTSUNNY 79 61 53 SE9 29.98F Teterboro SUNNY 83 62 49 S9 29.97F $$ NYZ177-179-078>081-172200- LONG ISLAND NEW YORK CITY SKY/WX TMP DP RH WIND PRES REMARKS Jones Beach N/A 73 N/A N/A SE9 N/A Matinecock PT N/A 79 N/A N/A NW2 N/A Farmingdale SUNNY 77 61 57 S10 30.00F MacArthur/ISP PTSUNNY 77 58 51 SE10 30.00F Shirley SUNNY 78 57 48 S10 30.01F Mt Sinai Harb N/A N/A N/A N/A S8 N/A Westhampton SUNNY 75 50 41 SE8 30.03S East Hampton FAIR 73 54 50 S7 30.00F Montauk N/A 75 58 55 VRB3 30.02F $$ NYZ052-065-067-172200- HUDSON VALLEY CITY SKY/WX TMP DP RH WIND PRES REMARKS White Plains MOSUNNY 78 60 53 SE9 29.99F Larchmont Harb N/A 75 N/A N/A NE3 N/A Croton On Huds N/A 81 N/A N/A S7G13 N/A Newburgh MOSUNNY 81 66 61 VRB5 29.99F Montgomery CLOUDY 82 63 52 SE5 29.97F Poughkeepsie MOSUNNY 81 60 48 S3 29.96F Albany PTSUNNY 81 48 31 SW3 29.97F $$ NJZ001-105-106-008-010-013-015-019>022-104-172200- NEW JERSEY CITY SKY/WX TMP DP RH WIND PRES REMARKS Newark/Liberty PTSUNNY 79 61 53 SE9 29.98F Teterboro SUNNY 83 62 49 S9 29.97F Caldwell SUNNY 81 65 58 S6 29.98F Somerville MOSUNNY 85 70 60 CALM 29.95F Linden NOT AVBL Perth Amboy N/A 75 N/A N/A E12 N/A Sussex MOSUNNY 82 64 54 SW8 29.98F Andover N/A 81 64 56 SW5 29.98F Trenton MOSUNNY 87 65 47 MISG 29.95F Millville PTSUNNY 84 73 69 VRB5 29.97S HX 90 Atlantic City SUNNY 84 67 56 S9 29.97F Wrightstown MOSUNNY 83 70 65 SE9 29.94F Toms River SUNNY 83 70 64 SE8 29.99F Belmar CLOUDY 78 69 73 E10 30.00F $$ PAZ047>061-062-071-172200- EASTERN PENNSYLVANIA CITY SKY/WX TMP DP RH WIND PRES REMARKS Philadelphia MOSUNNY 86 66 51 S8 29.95F Allentown MOSUNNY 86 64 47 S9 29.96F Scranton PTSUNNY 82 64 54 VRB5 29.97F $$ CTZ002-004>006-009-010-012-RIZ004-006-007-MAZ004-011-015-172200- SOUTHERN NEW ENGLAND IN CT CITY SKY/WX TMP DP RH WIND PRES REMARKS Bradley INTL NOT AVBL Hartford MOSUNNY 81 57 43 SE5 29.97F Danbury MOSUNNY 80 62 54 SW7 30.00S Wtrbury/Oxford MOSUNNY 78 60 53 S7 30.02S Norwalk Harbor N/A 73 N/A N/A E8 N/A Bridgeport SUNNY 78 57 48 SE5 29.99F Meriden MOSUNNY 79 58 48 SW9 29.98F New Haven MOSUNNY 79 55 43 SE10 30.00S Chester NOT AVBL Groton SUNNY 73 57 57 S9 30.00S Wilimantic SUNNY 81 52 36 NW7 29.98F IN RI CITY SKY/WX TMP DP RH WIND PRES REMARKS Providence MOSUNNY 78 53 41 S12 29.99F Block Island SUNNY 73 57 57 SW9 30.02S Westerly SUNNY 75 51 43 S10 30.01F IN MA CITY SKY/WX TMP DP RH WIND PRES REMARKS Boston PTSUNNY 81 49 32 SW10 29.96F Worcester SUNNY 76 44 32 W8 30.01F Westfield MOSUNNY 79 56 45 S8 29.97F Provincetown SUNNY 78 50 37 S8 29.99F Nantucket SUNNY 69 59 70 S8 30.01F $$ ANZ330-335-338-340-345-350-353-355-172200- COASTAL MARINE OBSERVATIONS STATION/POSITION TIME SKY/WX TEMP WIND PRES VSBY WAVE AIR SEA DIR/SP/G HT/PER (UTC) (F) (DEG/KT/KT) (MB) (MI) (FT/S) NY HARB ENTRANCE 1950 73 76 120/ 10/ 12 1015.6 3/ 8 GREAT SOUTH BAY 2015 73 78 150/ 8/ 12 N/A 23 SSW MONTAUK P 1950 71 72 1016.9 2/ 8 15 E BARNEGAT LI 2030 78 N/A 3/ 8 HUDSON CANYON 1950 76 77 210/ 6/ 8 1015.5 3/ 7 KINGS POINT 2030 77 74 200/ 9/ 12 1015.5 EXECUTION ROCKS NOT AVBL WESTERN LI SOUND NOT AVBL CENTRAL LI SOUND NOT AVBL EASTERN LI SOUND NOT AVBL ROBBINS REEF 2030 170/ 14/ 16 1016.3 $$ >>>>>>>>>>>>>>>>>>>>>>>>>>>> KEY <<<<<<<<<<<<<<<<<<<<<<<<<<< > < > SKY/WX - Sky Condition/Present Weather < > TMP - Temperature in Fahrenheit < > DP - Dew Point in Fahrenheit < > RH - Relative Humidity in Percent < > WIND - Direction (from) and Speed in MPH < > PRES - Mean Sea Level Pressure (inches of Hg) < > WCI - Wind Chill Index < > VSB - VISIBILITY IN MILES < > HX - HEAT INDEX < > TC - TEMPERATURE IN CELSIUS < > VRB - VARIABLE WIND DIRECTION < > < >>>>>>>>>>>>>>>>>>>>>>>>>>>> KEY <<<<<<<<<<<<<<<<<<<<<<<<<<<

USA.gov is the U.S. government's official web portal to all federal, state and local government web resources and services.